Weather reports worldwide

Advertisment
Gibraltar, United Kingdom (8495): temperature & dewpoint: 20.09.2018 17:00:00 - 26.09.2018 17:00:00 (CEST)Gibraltar, United Kingdom (8495): wind speed & gusts: 20.09.2018 17:00:00 - 26.09.2018 17:00:00 (CEST)Gibraltar, United Kingdom (8495): wind direction: 20.09.2018 17:00:00 - 26.09.2018 17:00:00 (CEST)Gibraltar, United Kingdom (8495): reduced air pressure: 20.09.2018 17:00:00 - 26.09.2018 17:00:00 (CEST)Gibraltar, United Kingdom (8495): visibility: 20.09.2018 17:00:00 - 26.09.2018 17:00:00 (CEST)
Date & Time tt [°C] td [°C] ff [km/h] ff [kn] fx [km/h] fx [kn] dd ppp [hPa] vv [km]
26.09.2018 17:00:00 24,2 21,3 26 14 46 25 ENE 1023,4 10
26.09.2018 16:00:00 24,9 21,2 28 15 - - ENE 1023,6 10
26.09.2018 15:00:00 24,9 21,1 26 14 - - ENE 1024,0 15
26.09.2018 14:00:00 24,9 21,2 29 16 48 26 ENE 1024,5 15
26.09.2018 13:00:00 24,6 21,1 31 17 50 27 ENE 1024,8 15
26.09.2018 12:00:00 24,4 21,0 31 17 52 28 ENE 1024,6 15
26.09.2018 11:00:00 24,0 20,9 34 18 52 28 ENE 1024,2 12
26.09.2018 10:00:00 23,6 21,1 35 19 52 28 ENE 1023,8 12
26.09.2018 09:00:00 23,1 21,4 29 16 - - ENE 1023,4 12
26.09.2018 08:00:00 22,9 21,4 29 16 50 27 ENE 1022,9 12
26.09.2018 07:00:00 22,9 21,6 29 16 46 25 ENE 1022,4 12
26.09.2018 06:00:00 23,1 21,6 41 22 50 27 ENE 1022,2 10
26.09.2018 05:00:00 23,2 21,8 41 22 46 25 ENE 1022,1 10
26.09.2018 04:00:00 23,4 21,9 37 20 46 25 ENE 1022,3 10
26.09.2018 03:00:00 23,4 22,0 39 21 46 25 ENE 1022,4 10
26.09.2018 02:00:00 23,4 21,9 35 19 - - ENE 1022,5 11
26.09.2018 01:00:00 23,5 21,8 31 17 - - ENE 1022,3 11
26.09.2018 00:00:00 23,6 21,7 31 17 - - ENE 1022,0 12
25.09.2018 23:00:00 23,6 21,6 26 14 - - ENE 1021,7 10
25.09.2018 22:00:00 23,8 21,6 29 16 - - ENE 1021,0 14
25.09.2018 21:00:00 23,9 21,7 24 13 - - ENE 1020,5 14
25.09.2018 20:00:00 24,2 21,9 28 15 - - ENE 1020,1 12
25.09.2018 19:00:00 24,9 22,0 28 15 - - E 1020,1 12
25.09.2018 18:00:00 25,3 22,1 21 11 - - ENE 1020,3 20
25.09.2018 17:00:00 26,1 22,3 24 13 - - E 1020,6 25
25.09.2018 16:00:00 25,4 22,1 26 14 - - ENE 1020,9 25
25.09.2018 15:00:00 25,5 21,4 28 15 - - ENE 1021,5 25
25.09.2018 14:00:00 25,5 21,0 24 13 - - ENE 1022,1 25
25.09.2018 13:00:00 25,6 21,1 22 12 - - ENE 1022,3 25
25.09.2018 12:00:00 25,2 20,8 26 14 - - ENE 1022,1 20
25.09.2018 11:00:00 24,3 20,9 16 9 - - E 1021,9 20
25.09.2018 10:00:00 23,9 20,2 18 10 - - ESE 1021,0 20
25.09.2018 09:00:00 24,0 20,1 18 10 - - ESE 1020,1 20
25.09.2018 08:00:00 23,8 20,3 18 10 - - E 1019,4 20
25.09.2018 07:00:00 24,3 17,4 16 9 - - E 1019,0 20
25.09.2018 06:00:00 24,3 17,4 15 8 - - E 1019,0 20
25.09.2018 05:00:00 24,3 19,5 18 10 - - E 1019,2 17
25.09.2018 04:00:00 24,0 20,2 16 9 - - E 1019,4 16
25.09.2018 03:00:00 24,1 20,3 21 11 - - E 1019,6 16
25.09.2018 02:00:00 23,5 20,2 18 10 - - ENE 1019,8 15
25.09.2018 01:00:00 23,6 20,2 15 8 - - ENE 1019,8 15
25.09.2018 00:00:00 23,7 20,3 15 8 - - ENE 1020,2 10
24.09.2018 23:00:00 23,5 21,4 13 7 - - E 1019,8 12
24.09.2018 22:00:00 24,0 21,7 9 5 - - E 1019,4 20
24.09.2018 21:00:00 24,2 21,6 9 5 - - ENE 1018,9 20
24.09.2018 20:00:00 25,5 19,7 11 6 - - E 1018,8 25
24.09.2018 19:00:00 26,5 18,6 13 7 - - E 1018,7 25
24.09.2018 18:00:00 26,6 18,9 18 10 - - ESE 1018,6 20
24.09.2018 17:00:00 26,7 19,0 18 10 - - ESE 1019,0 25
24.09.2018 16:00:00 27,4 17,3 18 10 - - ESE 1019,2 20
24.09.2018 15:00:00 28,3 17,1 21 11 - - ESE 1019,7 25
24.09.2018 14:00:00 26,8 18,6 21 11 - - ESE 1020,4 20
24.09.2018 13:00:00 26,9 16,5 16 9 - - ESE 1020,8 25
24.09.2018 12:00:00 25,9 18,6 15 8 - - E 1020,8 20
24.09.2018 11:00:00 26,5 17,2 9 5 - - E 1020,5 20
24.09.2018 10:00:00 22,4 18,1 4 2 - - NE 1020,1 10
24.09.2018 09:00:00 22,0 17,8 5 3 - - WSW 1019,7 20
24.09.2018 08:00:00 23,1 18,7 9 5 - - ENE 1019,2 20
24.09.2018 07:00:00 23,9 18,4 11 6 - - E 1019,0 15
24.09.2018 06:00:00 22,8 20,0 9 5 - - ENE 1019,3 15
24.09.2018 05:00:00 22,5 20,3 9 5 - - ENE 1019,4 13
24.09.2018 04:00:00 23,0 21,2 13 7 - - ENE 1019,9 13
24.09.2018 03:00:00 22,9 21,4 13 7 - - ENE 1020,0 12
24.09.2018 02:00:00 23,1 21,4 11 6 - - NE 1020,4 12
24.09.2018 01:00:00 23,3 21,4 11 6 - - ENE 1020,4 12
24.09.2018 00:00:00 23,8 21,1 15 8 - - E 1020,7 15
23.09.2018 23:00:00 23,8 20,9 18 10 - - E 1020,6 15
23.09.2018 22:00:00 24,1 20,3 21 11 - - E 1020,6 16
23.09.2018 21:00:00 24,3 20,6 15 8 - - E 1020,1 15
23.09.2018 20:00:00 24,8 19,7 15 8 - - E 1020,1 12
23.09.2018 19:00:00 25,2 18,9 21 11 - - E 1019,9 12
23.09.2018 18:00:00 26,0 18,1 18 10 - - ESE 1019,7 20
23.09.2018 17:00:00 25,8 18,9 18 10 - - E 1020,0 20
23.09.2018 16:00:00 25,6 19,3 18 10 - - E 1020,6 18
23.09.2018 15:00:00 25,4 20,8 16 9 - - E 1021,1 18
23.09.2018 14:00:00 25,6 21,2 22 12 - - E 1021,5 20
23.09.2018 13:00:00 25,3 20,5 24 13 - - E 1021,7 20
23.09.2018 12:00:00 24,7 20,8 22 12 - - ESE 1021,9 20
23.09.2018 11:00:00 24,1 21,2 22 12 - - E 1021,6 40
23.09.2018 10:00:00 23,9 19,8 18 10 - - E 1021,2 40
23.09.2018 09:00:00 23,4 19,6 16 9 - - E 1020,6 40
23.09.2018 08:00:00 22,8 20,2 15 8 - - E 1020,5 40
23.09.2018 07:00:00 23,7 19,2 13 7 - - E 1020,4 15
23.09.2018 06:00:00 23,3 19,6 18 10 - - E 1020,4 16
23.09.2018 05:00:00 23,0 20,7 16 9 - - E 1020,5 14
23.09.2018 04:00:00 23,1 21,2 16 9 - - E 1021,1 13
23.09.2018 03:00:00 23,3 21,6 18 10 - - E 1021,6 10
23.09.2018 02:00:00 23,1 21,8 16 9 - - E 1021,9 10
23.09.2018 01:00:00 23,1 21,8 18 10 - - E 1022,4 10
23.09.2018 00:00:00 23,0 21,6 18 10 - - E 1022,4 9
22.09.2018 23:00:00 23,4 21,4 15 8 - - ESE 1022,2 13
22.09.2018 22:00:00 23,4 21,3 29 16 - - SE 1021,7 12
22.09.2018 21:00:00 24,1 19,5 21 11 - - SE 1021,0 12
22.09.2018 20:00:00 24,4 20,7 15 8 - - ESE 1020,8 12
22.09.2018 19:00:00 24,5 20,9 18 10 - - E 1020,5 12
22.09.2018 18:00:00 24,7 21,4 16 9 - - E 1020,6 12
22.09.2018 17:00:00 25,3 21,9 22 12 - - E 1020,8 12
22.09.2018 16:00:00 24,8 22,0 21 11 - - E 1021,4 12
22.09.2018 15:00:00 25,1 22,2 18 10 - - E 1021,8 12
22.09.2018 14:00:00 24,7 22,0 18 10 - - E 1022,1 9
22.09.2018 13:00:00 24,2 22,1 18 10 - - ENE 1022,2 8
22.09.2018 12:00:00 23,3 21,7 18 10 - - ENE 1022,0 8
22.09.2018 11:00:00 22,4 20,7 18 10 - - ENE 1021,6 7
22.09.2018 10:00:00 22,0 20,6 13 7 - - ENE 1021,1 8
22.09.2018 09:00:00 21,9 20,5 13 7 - - E 1020,5 8
22.09.2018 08:00:00 22,1 20,8 15 8 - - E 1020,0 8
22.09.2018 07:00:00 22,3 20,8 11 6 - - E 1019,5 9
22.09.2018 06:00:00 22,2 20,5 13 7 - - E 1019,3 10
22.09.2018 05:00:00 22,4 21,2 11 6 - - E 1019,2 8
22.09.2018 04:00:00 22,3 21,3 11 6 - - ENE 1019,3 7
22.09.2018 03:00:00 22,7 21,7 11 6 - - NE 1019,8 7
22.09.2018 02:00:00 22,9 21,8 9 5 - - NE 1019,9 7
22.09.2018 01:00:00 23,3 21,9 11 6 - - ENE 1019,9 9
22.09.2018 00:00:00 23,2 21,8 13 7 - - E 1019,9 10
21.09.2018 23:00:00 23,3 21,6 11 6 - - E 1019,6 12
21.09.2018 22:00:00 23,7 21,6 11 6 - - E 1019,0 12
21.09.2018 21:00:00 23,7 22,0 13 7 - - E 1018,4 12
21.09.2018 20:00:00 24,1 21,8 11 6 - - E 1018,1 15
21.09.2018 19:00:00 24,7 22,0 13 7 - - E 1017,7 15
21.09.2018 18:00:00 24,8 21,7 13 7 - - E 1017,7 15
21.09.2018 17:00:00 25,6 21,8 16 9 - - E 1017,9 15
21.09.2018 16:00:00 25,2 21,4 15 8 - - E 1018,4 15
21.09.2018 15:00:00 25,1 21,9 15 8 - - E 1018,7 15
21.09.2018 14:00:00 24,5 21,7 11 6 - - E 1019,4 12
21.09.2018 13:00:00 24,0 21,6 11 6 - - ENE 1019,5 10
21.09.2018 12:00:00 23,7 21,4 11 6 - - NE 1019,5 10
21.09.2018 11:00:00 23,5 21,2 8 4 - - ENE 1019,0 6
21.09.2018 10:00:00 23,1 21,2 9 5 - - NE 1018,8 8
21.09.2018 09:00:00 22,6 21,3 9 5 - - ENE 1018,3 5
21.09.2018 08:00:00 22,4 21,1 8 4 - - NE 1017,9 5
21.09.2018 07:00:00 23,1 21,6 11 6 - - ESE 1017,7 9
21.09.2018 06:00:00 22,9 21,8 11 6 - - E 1017,6 9
21.09.2018 05:00:00 22,8 21,4 11 6 - - E 1017,5 10
21.09.2018 04:00:00 22,6 21,1 11 6 - - NE 1017,8 11
21.09.2018 03:00:00 23,1 22,1 11 6 - - ENE 1018,2 8
21.09.2018 02:00:00 23,0 22,2 15 8 - - NE 1018,6 7
21.09.2018 01:00:00 23,2 22,2 13 7 - - ENE 1018,8 8
21.09.2018 00:00:00 23,3 22,2 11 6 - - E 1019,0 8
20.09.2018 23:00:00 23,6 22,4 18 10 - - E 1018,7 9
20.09.2018 22:00:00 23,6 22,2 13 7 - - ENE 1018,2 10
20.09.2018 21:00:00 23,9 22,1 11 6 - - E 1018,1 12
20.09.2018 20:00:00 24,3 21,7 13 7 - - ESE 1018,0 15
20.09.2018 19:00:00 24,8 21,6 15 8 - - ESE 1018,1 15
20.09.2018 18:00:00 25,1 22,0 16 9 - - E 1018,3 15
20.09.2018 17:00:00 25,8 21,9 18 10 - - E 1018,8 15

tt = temperature
td = dewpoint
ff = wind speed
fx = gusts
dd = wind direction
ppp = reduced air pressure
vv = visibility

Next stations